Wind_Speed
8 11 13 13 14 16 17 17 18 19 19 20 20 20 19 19 20 20 20 22 22 23 24 24 25 25 25 25 26 26 27 27 27 27 27 27 26 25 24 22 21 19 18 17 17 16 15 15 16 17 16 15 15 15 15 16 17 18 19 19 18 17 16 15 16 16 16 17 18 20 21 21 22 24 26 25 24 24 23 24 24 24 26 26 24
6 9 11 11 12 14 15 16 17 18 19 19 20 19 20 20 20 20 21 22 23 23 24 23 24 25 25 24 24 25 26 26 27 27 27 27 27 26 25 24 23 22 20 19 18 17 16 15 15 15 15 15 14 15 15 15 16 16 16 15 14 13 13 14 16 16 16 17 18 19 21 22 23 25 26 26 26 25 25 26 25 24 25 26 25
5 6 8 10 11 12 14 15 15 17 17 18 19 19 19 20 20 20 21 21 22 23 23 23 23 24 24 24 24 24 25 25 26 26 27 27 27 26 26 25 24 23 22 20 19 18 17 16 15 15 15 14 14 15 15 14 14 15 15 14 13 12 12 15 17 17 17 18 20 21 22 23 24 25 26 27 27 27 27 26 25 24 25 26 27
5 5 6 8 9 10 11 13 14 15 16 17 18 18 19 19 20 20 20 20 21 22 23 22 22 22 23 24 24 25 24 25 25 26 27 27 27 27 26 26 26 25 24 22 21 20 19 18 17 16 15 15 15 15 15 15 15 15 14 14 15 15 15 16 17 17 18 19 21 22 23 24 24 25 26 26 27 27 27 27 27 27 27 28 29
6 5 5 6 8 8 9 11 12 13 14 15 16 17 17 18 18 19 19 20 20 21 22 22 22 22 23 24 25 25 25 26 26 26 27 27 28 27 27 26 26 26 25 25 24 23 22 22 20 19 17 16 16 15 15 16 17 17 15 14 15 16 17 18 18 18 18 20 22 23 23 24 26 27 28 28 28 28 29 30 30 31 31 32 34
6 6 5 5 6 7 7 8 11 11 11 12 13 14 15 16 16 16 17 19 20 20 21 21 22 22 22 23 25 26 26 26 26 26 27 27 28 28 27 27 26 26 26 26 26 26 25 24 23 22 20 19 17 17 16 17 18 18 18 18 18 18 18 19 20 21 20 21 24 25 25 25 27 28 29 30 30 31 32 33 34 35 37 38 40
8 7 6 5 4 6 6 6 9 10 10 10 11 12 13 14 15 15 15 17 18 19 20 21 21 22 22 22 24 25 26 26 26 26 27 27 28 28 29 28 28 27 27 27 27 27 27 26 25 24 23 21 20 19 18 18 18 19 21 21 20 19 19 20 21 21 20 22 25 27 27 26 28 29 30 30 32 34 36 38 39 40 42 44 46
10 9 8 7 5 4 6 6 6 8 9 9 9 11 11 12 13 13 14 14 16 17 19 20 21 21 22 22 23 24 25 25 25 26 26 27 28 29 29 29 29 29 29 29 28 28 27 27 27 26 25 24 22 20 19 18 18 20 22 22 20 19 19 20 21 21 21 23 25 27 28 28 29 30 31 32 34 36 39 41 43 44 46 48 50
12 11 10 9 7 5 5 5 6 6 7 8 8 9 10 10 11 12 13 13 14 15 17 18 19 20 21 21 21 22 23 24 25 25 25 26 27 28 29 30 30 30 30 30 30 29 29 28 28 27 27 26 25 23 20 19 19 20 21 21 20 20 20 19 19 21 23 25 27 28 28 28 30 31 32 34 36 38 40 42 44 45 47 49 51
16 14 12 10 9 6 5 5 5 5 6 6 7 7 8 9 9 10 11 12 12 13 15 16 17 18 19 19 20 20 21 22 23 24 25 25 26 27 28 30 30 30 30 30 31 31 30 30 29 28 28 27 27 26 23 20 18 19 19 19 19 20 21 20 19 21 23 25 27 28 28 28 29 30 33 35 37 39 40 41 43 44 46 48 49
19 17 15 13 10 8 6 5 5 5 5 5 5 6 7 7 7 8 10 11 11 12 13 15 16 17 18 18 18 19 19 20 21 22 23 24 25 26 27 28 29 30 30 30 30 31 31 31 30 30 29 28 28 27 26 23 20 18 17 17 17 18 19 20 20 21 23 25 26 26 26 26 27 30 33 35 36 38 39 40 41 43 44 46 47
22 20 18 16 13 10 7 6 5 5 5 5 5 4 5 6 6 6 8 9 10 11 12 13 15 16 17 17 18 18 18 19 20 20 21 23 24 25 25 26 27 28 30 30 31 31 30 31 31 30 30 29 28 28 27 26 24 21 19 18 17 17 18 18 19 20 22 24 25 25 25 25 27 30 32 34 35 36 36 38 39 40 42 43 44
24 22 20 18 15 12 10 7 6 5 5 4 4 3 3 4 5 5 5 6 8 9 10 11 13 14 15 16 17 17 18 18 19 20 21 22 23 24 24 25 25 26 28 29 30 31 31 31 30 30 30 29 29 29 28 27 26 24 22 20 19 18 18 18 19 20 21 22 24 24 25 26 28 31 32 33 33 34 34 35 36 37 38 39 40
26 24 22 20 17 15 13 10 8 6 5 4 4 3 0 2 4 4 4 4 4 5 7 8 10 11 13 14 16 16 17 18 19 20 20 21 22 23 23 24 24 25 26 27 28 29 30 30 30 30 29 29 29 29 29 28 26 24 23 22 20 19 19 20 20 21 22 23 24 25 26 28 30 31 31 31 31 32 32 33 34 34 35 36 37
28 26 24 22 19 18 16 13 11 8 6 5 4 3 1 2 4 4 4 3 3 3 3 5 7 8 10 12 13 15 16 16 17 18 20 21 22 23 23 24 24 24 24 25 26 27 28 28 29 29 29 28 28 28 28 27 26 25 23 21 20 19 19 20 21 22 23 24 24 25 27 29 30 30 30 30 30 29 30 30 31 31 32 33 34
30 28 26 24 22 20 18 16 14 11 8 6 5 4 3 2 3 4 4 4 4 4 3 3 4 5 6 7 10 11 13 15 16 17 18 20 21 22 23 23 24 24 24 24 25 25 26 26 27 27 27 27 27 26 26 26 25 24 23 22 20 19 19 19 21 22 23 24 25 26 27 28 28 29 28 28 27 27 27 27 28 29 29 30 31
30 29 28 26 24 22 20 19 17 14 11 9 7 6 5 4 3 3 4 4 5 6 6 5 4 3 3 4 5 7 9 11 13 14 16 18 20 21 22 22 23 24 24 24 24 24 25 25 25 25 25 25 25 24 24 24 24 23 23 22 21 20 20 20 21 22 22 23 24 25 26 26 25 25 25 25 24 24 24 25 25 26 27 28 28
29 30 29 27 26 24 23 21 19 17 14 12 10 8 8 8 7 6 5 4 5 5 6 5 5 5 4 3 4 4 5 7 9 11 13 16 18 19 20 21 22 22 23 23 24 24 24 24 25 24 24 24 23 23 22 22 22 21 21 21 20 20 20 21 21 21 21 21 22 24 25 25 24 23 23 23 23 22 22 22 23 24 25 26 26
29 30 31 30 28 27 25 23 21 19 17 15 14 12 11 11 11 11 9 8 7 6 5 5 5 4 4 4 6 5 3 4 5 7 10 12 15 17 18 19 20 21 21 21 22 23 23 23 23 23 23 23 22 21 21 20 19 19 19 19 19 18 18 18 19 20 20 20 21 22 23 24 24 23 23 22 21 20 20 20 20 21 22 23 23
31 31 32 31 29 28 27 26 24 21 19 19 18 16 15 14 14 14 13 12 11 10 9 8 6 4 3 4 7 6 4 3 3 4 5 7 10 13 15 16 17 18 19 19 20 20 21 21 22 22 22 21 21 20 19 18 17 17 17 17 17 17 17 17 17 19 19 19 19 20 21 21 21 21 21 19 18 18 17 17 18 19 19 20 20
35 34 34 32 30 29 29 28 26 23 21 20 20 18 17 16 15 16 16 15 15 14 14 13 11 9 8 7 7 6 5 4 3 2 3 4 6 8 11 13 14 15 16 17 17 17 18 19 19 19 20 19 19 19 18 16 15 15 15 15 15 15 15 15 16 17 17 17 17 17 18 18 18 18 18 17 17 16 16 16 16 17 17 17 17
37 37 35 32 30 29 29 30 29 27 23 21 22 21 19 18 18 18 18 18 18 18 17 17 16 15 14 13 12 9 7 6 4 2 2 3 4 4 5 8 10 12 13 14 15 15 15 15 16 16 17 17 17 17 16 15 14 13 12 12 12 13 13 14 14 14 15 16 15 15 15 16 16 16 16 16 16 16 16 16 16 16 16 15 15
36 36 35 33 31 30 30 31 31 29 27 24 25 24 23 22 22 22 22 22 21 21 20 20 20 20 19 17 16 14 11 9 7 5 5 4 2 2 3 4 6 8 10 10 11 13 13 13 13 13 14 15 15 15 15 14 14 13 11 10 10 10 11 12 12 13 13 14 14 14 14 14 14 14 13 13 14 14 15 15 15 14 14 14 13
34 33 34 33 33 32 31 32 32 31 30 29 28 27 26 26 25 24 25 25 24 24 24 23 22 22 22 21 20 18 16 14 12 10 9 7 6 4 4 3 4 5 7 7 8 9 10 11 11 10 11 11 12 12 13 12 12 12 11 10 8 8 9 10 11 11 12 12 12 12 12 12 11 11 10 10 11 12 13 13 13 13 13 12 11
35 34 33 34 35 36 35 35 35 34 33 32 31 29 29 28 27 27 28 27 27 27 28 26 25 25 24 24 24 22 20 18 16 15 13 12 10 8 7 6 5 5 5 6 6 7 8 9 9 8 8 8 9 9 10 10 10 10 9 8 7 6 7 8 11 12 12 12 11 10 9 8 7 7 7 7 8 9 10 11 11 11 11 10 9
36 36 37 38 38 40 40 39 38 37 36 34 33 32 30 29 30 30 31 30 30 30 31 30 30 29 28 26 26 25 24 23 21 19 18 16 14 13 11 10 8 8 7 6 6 7 7 8 8 8 7 6 6 7 7 7 7 6 7 6 5 5 5 7 11 12 11 10 9 8 7 7 6 5 6 6 7 8 8 8 9 9 8 7 7
37 37 39 40 40 40 40 40 40 39 37 36 35 33 31 29 30 32 33 33 33 33 33 33 33 34 32 30 29 29 28 26 25 24 22 20 19 18 16 14 12 11 10 9 9 8 8 9 9 9 8 6 5 4 4 4 4 4 4 3 3 3 3 6 10 10 7 7 6 4 4 5 4 4 4 5 6 7 7 7 7 7 6 5 4
40 39 41 43 44 43 41 40 40 39 38 38 36 32 31 30 30 31 34 35 37 38 38 37 37 37 36 34 32 31 30 28 27 25 23 22 21 21 20 18 17 16 15 13 12 11 11 11 10 10 9 8 7 6 4 2 2 2 3 2 1 2 3 4 8 9 5 3 2 2 2 2 1 1 1 3 4 5 6 7 7 6 6 5 4
42 42 43 44 45 45 45 42 40 39 39 39 37 34 34 35 33 33 35 36 39 42 43 42 38 37 38 38 35 33 32 30 28 26 24 23 23 22 21 20 20 20 18 17 15 15 14 13 12 12 11 10 10 9 7 6 5 5 5 6 5 4 4 2 4 7 6 3 1 1 1 1 1 1 1 1 2 4 5 6 7 8 8 8 8
44 45 46 46 46 46 47 45 42 41 41 40 40 39 39 40 39 39 40 40 41 42 43 45 43 38 39 40 37 34 33 32 30 29 28 27 26 25 24 23 23 23 21 20 19 18 17 15 14 14 13 13 13 13 12 10 9 8 8 8 9 9 9 7 2 3 4 4 4 3 2 2 2 2 2 3 3 4 4 5 7 8 9 9 9
48 48 49 48 47 46 47 46 45 44 44 45 45 44 44 45 45 45 44 44 45 44 42 45 46 43 41 41 38 35 34 33 32 32 31 32 31 30 28 27 25 24 23 22 22 21 20 18 17 16 16 16 16 16 16 15 14 13 12 12 12 13 14 13 10 5 4 5 5 4 3 2 2 3 3 4 5 5 5 6 7 8 8 8 7
52 50 50 49 48 46 46 46 46 47 47 48 48 47 47 49 49 49 49 47 48 48 44 43 45 45 44 42 39 38 38 36 34 33 33 33 33 31 29 26 24 22 23 23 23 23 22 21 21 20 20 19 19 19 19 19 18 18 17 17 16 16 17 17 16 13 10 9 8 7 5 4 3 4 5 6 6 6 6 6 7 7 8 7 6
52 50 49 49 50 49 48 48 48 49 50 51 51 50 49 50 51 52 53 52 51 49 46 44 44 46 47 45 42 41 42 41 38 35 34 34 34 32 29 27 25 24 24 24 25 25 26 26 25 24 23 23 23 23 23 22 22 22 22 21 21 20 19 19 20 19 17 15 13 11 10 9 8 8 9 9 9 9 8 7 7 7 7 7 6
52 51 48 45 48 51 51 51 51 51 53 54 54 52 51 52 53 54 56 56 55 51 49 47 46 46 48 48 46 43 44 44 42 39 38 38 37 35 34 33 29 26 26 28 29 29 29 28 27 26 27 27 27 28 28 27 26 25 25 25 25 24 22 22 22 23 22 21 19 17 16 14 13 13 12 11 11 12 11 9 9 9 9 8 7
55 53 50 44 44 48 52 54 54 54 54 54 54 55 55 55 53 54 57 59 58 57 54 51 50 50 50 50 49 47 46 45 44 42 40 40 39 38 38 38 34 30 31 33 35 35 34 32 31 32 31 30 30 31 31 31 30 28 27 28 28 28 27 26 26 26 25 25 25 24 23 21 19 19 18 15 13 14 14 13 11 11 11 10 9
61 55 51 45 44 48 51 53 57 59 58 55 53 54 57 58 56 56 58 60 60 60 59 56 54 54 53 51 50 50 51 51 48 45 42 41 41 39 38 39 38 36 37 39 41 42 41 39 38 38 36 34 34 35 32 31 31 30 29 29 31 32 32 32 31 30 29 29 28 28 28 27 26 25 23 21 19 17 17 17 16 16 15 14 13
68 61 55 49 49 52 53 53 57 61 64 64 62 59 58 58 58 58 60 61 61 60 59 57 54 55 57 57 54 52 54 55 52 48 45 44 44 43 41 41 42 42 43 44 44 46 46 45 44 43 40 37 38 38 35 31 31 30 30 31 32 34 36 36 36 35 34 33 32 31 31 31 31 30 29 27 26 23 20 19 19 19 20 19 18
73 68 63 57 54 56 58 57 57 60 66 69 71 69 65 61 60 61 62 63 63 62 60 58 55 53 56 62 64 61 58 56 53 50 48 48 49 49 48 48 48 48 48 47 48 49 50 51 50 47 44 41 39 39 37 35 33 32 33 35 35 36 37 39 40 39 38 36 36 35 34 33 34 35 34 32 31 29 26 22 21 20 21 23 23
75 71 68 64 61 60 62 64 62 61 64 68 71 73 72 70 68 69 68 67 66 66 66 66 64 60 59 62 66 67 65 63 60 57 54 53 54 53 53 53 53 52 52 51 51 52 53 54 54 52 48 44 41 39 39 38 37 36 37 39 38 38 39 41 42 42 41 39 38 37 36 35 35 37 38 37 37 35 31 27 25 24 24 24 26
80 75 72 70 67 63 64 69 70 68 67 68 70 72 75 75 74 73 72 72 71 70 70 70 71 72 70 67 67 67 68 69 69 67 64 62 60 58 56 55 55 55 55 55 54 55 56 57 57 55 52 48 44 43 43 42 41 42 43 43 42 41 43 44 44 43 43 44 43 41 38 37 37 38 40 41 42 41 37 33 32 31 30 29 28
85 81 78 76 71 66 66 70 74 75 74 74 74 75 76 77 77 75 73 73 73 73 73 73 73 75 76 76 74 72 71 70 71 71 71 69 66 62 60 59 59 60 61 60 60 61 62 62 60 59 57 54 52 51 49 47 46 46 45 44 44 45 47 48 47 46 45 46 47 45 42 39 38 40 42 43 44 44 43 41 39 37 36 35 33
89 87 85 82 77 74 71 71 76 80 81 79 80 81 80 80 79 77 75 74 75 75 75 76 77 77 78 78 78 78 77 74 73 73 73 72 70 68 66 65 65 65 66 66 66 67 68 67 66 63 61 60 59 57 55 54 53 51 48 45 44 45 48 52 53 52 49 47 46 45 43 40 39 41 43 44 44 45 46 47 46 44 42 41 40
94 93 91 89 85 81 77 72 74 82 86 85 84 84 84 85 83 81 78 77 78 79 80 80 81 81 81 79 79 80 80 78 76 75 74 74 73 72 72 71 71 70 70 71 71 71 71 71 71 69 65 63 63 62 62 61 60 58 55 52 49 48 50 55 57 57 55 52 49 47 47 47 45 43 43 43 43 44 46 49 50 49 48 47 46
99 96 95 94 92 89 84 77 73 77 84 89 90 88 87 87 87 87 85 82 80 81 83 84 84 84 83 82 80 80 80 79 77 76 76 76 77 77 77 76 77 76 75 75 75 76 75 74 74 74 71 68 67 67 67 66 65 64 63 61 58 57 57 58 59 58 57 56 54 51 51 51 50 48 47 46 46 46 48 50 53 53 53 52 52
104 101 98 98 98 97 94 88 81 77 78 83 89 93 93 92 90 90 89 88 86 83 83 83 84 85 85 83 82 81 80 79 77 77 77 77 78 79 80 79 79 79 79 78 78 79 79 79 78 78 76 74 73 73 71 69 67 68 69 68 66 65 63 62 62 61 59 59 59 57 56 55 56 56 55 54 52 51 51 52 54 56 57 58 57
105 105 102 100 100 102 102 100 95 89 84 82 83 88 94 97 97 94 92 91 90 88 86 84 84 85 85 85 84 83 82 82 81 80 79 77 75 74 75 77 78 78 78 79 79 80 80 80 81 80 79 78 77 76 74 72 70 70 71 71 71 70 68 66 66 65 64 63 63 63 63 64 64 65 65 63 62 60 58 57 58 59 60 61 61
102 104 104 101 99 100 103 105 105 102 98 93 89 87 89 94 99 101 99 96 94 92 91 89 88 88 87 87 87 87 86 85 84 83 82 80 77 73 70 71 73 75 76 77 78 78 79 79 80 79 77 77 77 78 77 76 74 72 73 73 72 72 72 71 70 70 70 69 69 69 69 69 69 69 70 70 69 67 64 62 62 63 63 64 64
101 103 104 104 102 100 100 102 105 107 107 105 102 98 94 93 95 99 103 103 100 97 96 95 95 95 93 92 91 91 90 89 88 86 85 84 83 81 76 72 70 70 72 73 74 76 77 78 80 79 78 77 77 78 78 78 77 76 76 76 75 75 76 76 75 75 75 75 75 75 75 74 72 71 72 73 72 70 68 67 66 67 68 68 68
101 102 104 106 108 107 105 103 103 105 108 109 110 109 107 103 100 99 101 103 104 103 102 101 101 101 100 99 97 96 96 95 94 93 91 89 88 87 86 83 79 76 74 73 73 73 75 77 79 81 82 82 81 81 80 80 80 80 80 80 80 81 81 82 81 80 79 79 80 80 81 80 78 76 76 75 75 74 73 73 73 72 72 73 73
101 102 104 105 108 110 111 111 110 109 108 109 109 111 112 112 111 108 105 105 106 106 106 106 106 105 104 104 103 102 102 101 100 99 99 98 97 95 93 91 89 87 85 83 80 79 78 77 78 79 81 83 83 84 83 83 83 83 84 85 85 86 86 86 86 86 85 84 84 84 85 85 84 83 82 81 79 78 78 78 78 77 76 77 77
106 106 106 107 108 109 111 113 114 115 114 113 112 112 112 113 114 115 114 113 112 111 111 110 109 108 106 104 103 102 101 100 100 99 99 99 100 100 100 98 96 94 93 92 90 89 87 86 84 83 82 82 82 83 84 84 84 85 86 87 88 89 90 91 91 91 90 89 88 88 89 88 88 88 88 87 85 84 82 81 80 80 80 81 81
Wind_Direction
43 36 37 43 51 55 60 62 62 60 60 61 62 62 61 59 58 57 56 56 57 57 59 60 59 59 59 58 58 59 60 59 58 58 58 59 59 58 57 59 61 62 64 67 71 74 75 76 76 77 78 79 80 80 76 75 76 78 81 81 80 79 78 75 71 64 60 60 56 52 49 47 47 46 45 44 43 42 41 41 40 39 37 38 42
60 44 39 44 53 58 62 66 66 64 63 63 63 63 62 60 59 58 58 59 60 59 60 62 62 61 60 59 59 59 61 60 59 58 58 59 59 59 58 58 61 64 65 66 67 69 70 70 72 75 78 76 76 77 75 73 73 76 80 80 77 74 70 70 70 63 58 58 54 50 49 48 49 49 47 46 44 42 41 40 41 40 38 40 45
88 61 45 44 55 62 65 69 70 69 67 66 66 65 64 62 61 60 59 60 61 61 62 63 63 62 61 61 60 60 60 60 58 57 57 57 58 59 59 58 59 61 62 63 63 65 65 65 66 70 74 75 73 73 73 72 71 71 73 74 72 68 66 68 70 64 60 60 57 54 52 50 51 51 48 46 44 42 44 45 46 46 45 46 50
122 88 61 49 54 64 69 72 74 74 72 71 70 68 67 65 63 61 60 60 60 61 61 62 62 62 61 60 59 59 60 59 58 56 56 56 57 58 59 59 58 59 59 60 61 62 64 63 63 65 69 72 74 72 70 69 70 71 73 72 68 66 66 66 66 62 60 59 57 56 53 51 52 53 51 50 49 50 52 53 54 55 55 56 58
154 120 87 63 55 60 71 75 77 78 77 76 74 72 69 67 65 62 59 58 59 59 59 60 61 63 62 60 59 59 59 59 59 57 56 56 56 56 57 57 57 57 58 59 59 60 61 61 61 63 64 67 70 70 68 67 68 70 73 75 72 69 67 66 66 65 62 60 58 57 55 52 53 56 58 58 59 60 61 62 63 64 66 67 68
176 145 116 85 65 61 69 79 80 80 80 80 77 75 71 68 66 62 58 57 57 58 57 57 59 61 63 61 59 59 58 59 58 58 58 57 56 55 54 54 55 56 56 57 57 57 58 59 60 61 62 64 66 66 66 70 71 71 74 78 78 74 71 70 71 71 69 65 59 55 56 56 58 62 64 65 67 70 71 72 73 74 75 76 77
189 167 147 122 94 70 69 80 85 84 83 83 79 76 72 68 66 62 58 57 57 57 55 56 56 58 61 62 61 60 59 58 57 57 58 58 57 56 54 53 54 55 55 55 56 55 56 57 59 60 61 62 64 65 67 71 74 74 76 79 80 78 76 74 74 71 69 63 56 54 58 62 65 68 71 72 75 78 80 81 81 82 83 83 84
195 184 170 151 135 101 79 78 88 93 90 87 84 79 73 68 66 62 58 57 57 57 56 56 55 56 58 60 62 62 61 60 58 56 57 58 58 56 55 54 55 55 55 55 54 54 54 55 56 58 59 60 62 63 66 69 74 77 79 80 80 79 78 75 71 66 65 62 58 59 64 69 72 75 79 82 84 86 87 87 87 87 88 88 89
199 195 186 170 159 141 108 86 85 99 101 93 88 84 78 69 64 62 58 56 56 55 56 56 56 57 57 59 61 62 63 62 60 58 56 56 57 57 56 55 55 55 55 55 54 53 53 53 54 56 58 60 60 61 64 67 72 77 80 78 76 75 76 75 70 65 63 63 63 67 71 74 77 81 86 90 91 91 91 90 90 90 90 90 91
198 200 196 185 173 164 146 115 88 92 106 105 94 87 83 74 64 60 58 55 55 55 55 56 56 58 58 59 61 62 63 63 62 61 58 56 56 57 58 57 56 55 55 55 55 54 53 52 53 55 57 59 60 61 63 67 71 74 73 70 69 71 74 74 71 65 63 63 65 70 75 77 81 86 92 95 95 95 94 93 93 92 91 91 91
199 202 198 192 185 179 172 151 115 92 103 119 110 90 83 78 65 59 57 53 54 56 57 58 60 62 61 61 60 61 63 65 64 63 61 59 57 56 58 59 58 56 55 55 55 55 54 53 52 53 55 57 58 60 61 64 67 67 66 65 66 69 71 70 66 63 62 63 66 71 76 80 86 93 98 99 98 97 96 95 94 93 93 92 92
201 203 201 195 190 187 189 180 154 117 103 123 129 99 79 73 62 54 55 53 53 55 60 62 63 64 64 63 61 61 62 65 66 66 64 61 59 57 56 58 59 58 56 55 54 54 54 54 53 52 53 55 57 58 59 61 61 62 63 65 66 66 67 66 62 61 61 62 68 74 80 86 94 101 103 102 100 99 97 96 95 95 94 93 92
204 205 205 198 191 191 198 199 183 156 123 125 141 126 72 52 42 35 40 50 53 56 63 68 68 66 64 65 64 64 64 65 67 68 68 65 62 60 56 55 56 58 57 55 54 54 54 55 55 54 53 54 55 56 57 58 60 60 62 65 66 64 64 64 63 62 63 67 74 80 87 95 103 107 107 105 103 100 98 97 96 95 94 92 91
208 206 208 202 193 192 199 207 202 187 161 145 150 160 161 349 357 359 2 23 45 55 62 67 70 70 68 68 68 67 66 65 67 68 69 68 66 64 60 56 54 55 56 55 54 53 53 53 54 54 53 53 54 55 55 57 58 60 61 63 65 65 64 64 64 67 71 76 82 88 95 103 109 111 110 108 104 101 99 98 97 95 94 92 91
211 205 208 207 199 195 198 205 209 201 190 180 174 177 204 301 321 325 323 328 355 24 46 57 66 70 71 71 70 70 69 66 65 66 68 69 68 66 64 60 57 55 55 55 54 53 53 52 51 52 52 52 52 53 54 55 57 59 61 63 65 66 66 66 67 73 79 83 87 94 101 108 112 113 112 108 104 101 100 98 97 95 93 92 91
214 207 207 208 204 201 199 203 209 207 203 201 199 202 205 242 301 313 309 300 306 318 333 10 43 61 69 70 68 67 69 68 65 64 65 68 68 67 65 63 61 59 57 56 54 52 52 52 51 51 51 51 52 52 52 53 55 57 60 63 66 68 70 71 72 77 84 88 92 98 105 111 113 113 111 107 102 101 100 99 97 95 93 92 91
215 212 208 209 208 205 203 204 208 210 210 211 211 218 222 223 248 283 299 297 297 302 312 324 343 16 43 58 54 54 64 70 69 66 66 66 66 67 66 64 63 61 60 58 56 55 53 53 52 51 51 50 51 52 52 52 53 55 58 61 66 72 77 80 80 82 87 90 93 100 106 112 114 112 110 107 103 101 101 99 97 95 93 93 93
213 214 210 210 211 209 208 207 208 209 211 216 216 218 226 232 236 246 261 277 291 295 304 314 320 338 355 356 358 19 53 70 71 72 71 68 63 62 64 63 62 61 60 59 58 57 55 54 53 52 51 50 49 50 50 51 52 53 55 59 64 72 80 84 84 84 88 91 93 98 105 110 113 113 112 110 106 104 103 101 99 97 95 95 95
209 213 211 210 212 212 213 213 210 208 209 215 220 219 223 233 238 239 242 250 265 277 291 303 317 336 349 350 348 351 22 66 74 75 75 74 66 58 56 57 58 58 58 58 58 58 57 56 54 52 51 50 49 48 48 49 50 51 54 56 60 66 74 81 85 87 89 92 93 97 103 108 112 114 114 112 107 105 104 104 103 101 100 99 98
207 211 211 211 212 213 215 217 216 212 209 213 220 222 222 228 236 241 242 244 250 259 271 280 291 308 319 333 349 1 22 55 75 80 75 78 74 61 52 49 49 51 52 53 55 57 58 58 57 55 52 50 49 48 47 48 49 49 51 54 57 61 65 72 82 92 95 96 97 98 102 107 114 117 117 114 109 108 110 110 109 107 105 104 103
209 209 210 211 213 215 217 220 222 220 216 217 222 225 227 231 238 245 249 249 249 254 261 269 273 279 282 290 312 339 359 9 30 64 69 81 86 70 56 47 42 42 42 42 46 52 57 59 58 56 55 53 50 47 46 47 48 48 49 51 53 56 60 66 78 93 101 104 106 105 106 111 116 119 119 117 115 115 118 118 115 113 110 108 107
212 211 211 213 216 217 219 222 225 226 224 223 226 229 231 235 240 247 251 253 253 254 256 261 267 271 274 277 283 293 307 323 336 341 4 52 80 66 53 50 40 34 34 32 32 38 48 56 59 57 55 54 52 48 46 46 47 48 48 49 50 53 58 65 76 91 104 110 113 114 115 119 122 123 123 122 122 122 123 122 121 120 117 113 110
211 214 216 218 220 221 223 225 227 229 229 227 229 232 232 235 239 244 249 252 255 256 256 257 261 266 270 272 275 279 282 289 294 290 297 320 351 1 14 35 31 26 28 26 22 24 31 42 53 57 55 54 53 51 48 48 48 47 46 48 51 54 57 62 71 84 98 109 115 119 122 126 128 129 130 130 128 128 128 127 125 123 120 116 113
206 213 220 224 227 228 228 229 230 231 231 231 233 234 236 239 241 244 247 250 254 258 259 259 259 262 266 269 271 273 274 275 275 274 276 282 289 299 320 342 355 6 16 16 9 7 13 22 33 46 54 55 54 52 51 51 50 48 45 43 47 54 60 63 67 74 84 95 104 110 118 125 129 132 136 138 138 136 135 134 131 127 124 120 117
208 211 216 222 229 233 233 232 232 232 232 233 235 236 239 243 246 248 249 250 252 255 258 260 260 260 261 264 268 269 270 269 268 266 266 268 272 278 288 300 315 329 342 351 347 342 348 358 7 20 36 51 56 55 52 51 52 53 50 47 50 53 58 70 75 74 74 77 81 86 94 104 118 132 143 152 158 156 151 145 140 136 132 128 121
212 209 209 213 223 231 234 233 234 235 235 236 236 236 239 244 248 250 251 252 253 254 255 258 261 261 258 259 262 264 265 265 265 264 262 262 265 270 277 286 296 301 304 312 318 317 320 325 333 346 3 26 45 51 49 45 47 53 56 63 70 68 74 86 84 76 67 61 61 70 81 86 101 127 148 164 177 181 176 169 161 153 147 141 129
213 210 208 209 214 221 227 231 234 236 239 241 240 239 242 244 247 252 254 255 255 256 256 256 257 258 257 255 256 258 260 262 264 264 262 262 266 269 275 281 285 288 289 293 298 299 300 303 308 316 329 346 3 16 25 29 29 36 46 61 82 94 100 92 81 72 61 49 39 45 73 87 102 126 144 162 178 192 197 195 189 179 172 167 157
212 212 211 212 212 214 218 223 229 233 238 243 244 246 248 247 248 254 257 258 258 256 256 255 254 254 256 257 257 257 258 260 263 265 264 265 269 273 276 280 281 282 284 287 291 294 292 292 295 297 300 307 314 316 321 328 330 335 339 333 300 175 165 99 76 73 75 64 28 7 27 59 94 127 144 166 181 197 206 211 217 218 215 218 228
213 212 212 214 215 215 216 218 223 228 233 238 240 241 244 245 247 250 252 253 254 254 253 253 254 255 256 258 259 258 256 258 260 261 260 262 266 270 274 278 279 279 282 284 285 288 289 289 291 292 290 289 289 291 293 291 284 282 287 289 281 256 232 208 88 83 97 131 184 245 261 272 273 265 266 230 208 209 215 219 225 231 234 241 250
212 210 210 213 215 217 218 219 221 225 229 231 231 231 233 237 240 240 243 246 247 248 250 250 250 253 255 254 254 255 255 256 256 255 255 259 262 263 266 271 274 274 276 278 280 283 285 286 289 291 290 287 283 282 282 282 279 274 271 272 271 269 262 256 239 98 117 162 196 203 200 211 237 251 262 268 259 246 238 235 234 236 239 243 251
211 208 208 210 213 216 219 220 221 224 226 228 228 228 228 230 233 233 235 241 242 242 246 247 246 248 250 250 250 251 253 254 252 251 254 259 261 261 262 267 272 273 272 272 273 276 279 282 285 287 288 285 282 279 278 278 276 274 273 270 267 266 266 265 264 249 201 196 212 218 199 197 221 239 243 249 255 251 244 239 240 241 242 242 246
210 209 210 211 211 213 215 217 219 221 225 228 230 230 228 228 230 230 231 236 240 240 242 245 246 245 245 247 250 251 252 251 248 248 253 258 259 258 259 262 267 272 274 271 270 269 272 275 280 283 285 284 282 280 278 275 274 274 274 272 268 266 266 267 268 263 246 230 231 236 235 232 247 264 260 252 249 249 247 245 246 245 242 239 233
209 208 210 212 213 213 214 215 216 218 223 228 230 231 231 230 231 232 231 233 236 237 237 242 248 248 244 245 250 252 250 246 244 246 250 253 254 254 254 256 260 267 272 273 272 272 273 274 274 277 280 281 281 281 278 275 272 271 271 269 266 266 266 268 269 267 261 252 244 240 240 241 249 265 270 264 255 251 248 245 242 238 229 224 216
209 208 208 211 213 215 215 216 216 216 220 226 229 231 233 233 233 233 232 232 234 237 238 242 247 248 244 243 247 248 245 242 242 247 251 251 250 251 253 255 257 260 267 271 273 275 276 273 272 274 278 280 279 279 278 276 274 272 270 268 266 264 265 267 269 269 267 262 255 250 248 247 248 255 265 267 258 251 248 244 238 233 226 218 207
210 208 209 212 216 218 218 217 217 216 218 224 229 232 234 235 234 233 234 234 235 237 240 242 245 245 242 243 243 240 238 239 243 248 250 249 248 248 251 253 253 256 264 270 272 274 274 271 271 277 282 282 280 279 279 277 276 273 271 269 267 265 264 265 267 268 268 265 261 258 256 254 252 255 261 265 259 251 248 246 242 238 232 227 218
211 209 208 211 216 218 217 217 217 217 218 220 224 228 231 233 233 233 233 234 236 237 239 241 244 242 239 240 241 238 237 240 243 244 244 243 244 245 247 248 251 258 267 272 273 273 272 270 272 277 281 282 280 280 281 279 277 274 270 267 267 268 267 266 266 267 267 266 263 261 259 258 257 258 260 262 260 255 249 246 245 244 240 236 233
212 210 209 212 217 218 215 213 215 217 218 219 221 223 225 227 228 230 231 231 233 236 238 240 242 240 236 236 238 238 239 240 241 240 238 237 239 242 243 246 251 259 267 273 274 273 272 272 272 274 277 278 278 279 281 279 276 274 271 268 269 269 269 268 267 266 265 264 264 262 260 259 258 259 260 261 261 259 254 249 249 249 247 246 244
214 212 212 214 219 221 218 215 215 215 217 219 222 223 224 224 225 227 229 229 230 232 234 235 236 236 234 234 236 239 240 241 240 240 239 237 237 240 243 247 252 258 265 270 271 270 270 270 271 273 274 275 276 278 279 278 277 275 274 273 272 271 269 268 268 266 264 263 262 261 260 259 259 259 259 260 260 260 258 255 253 252 251 251 251
220 216 215 216 217 221 223 222 219 217 217 218 220 223 224 225 226 228 229 230 230 230 231 232 234 234 233 233 235 238 241 243 245 246 245 242 240 242 246 249 253 258 264 268 267 265 265 264 266 269 272 273 274 275 276 276 276 276 278 279 277 273 271 270 269 267 265 263 262 259 257 257 259 260 260 260 259 258 257 256 256 255 254 254 254
222 222 221 219 217 219 225 226 225 223 220 219 220 221 223 225 227 229 230 230 231 231 232 233 235 237 237 237 238 240 242 245 247 248 248 247 244 245 249 251 253 256 260 262 262 262 262 261 261 263 265 267 268 268 269 271 273 274 276 277 276 276 275 273 268 266 266 265 263 259 257 256 257 258 259 259 259 259 258 256 256 257 257 256 257
219 223 226 224 220 220 225 228 228 227 225 223 222 223 224 225 227 228 229 230 230 231 232 233 235 237 239 240 242 244 245 246 247 248 250 249 248 248 252 253 253 255 257 259 260 260 261 261 261 261 261 262 263 264 264 266 268 270 271 273 274 276 276 273 268 266 266 266 264 261 259 258 258 258 257 258 259 259 259 258 258 257 257 257 259
219 221 226 226 223 223 226 228 229 230 228 227 226 226 227 227 228 229 229 229 230 231 232 233 235 237 239 241 243 245 246 248 249 249 250 249 248 250 255 256 255 256 257 259 259 260 260 261 262 262 261 261 261 262 262 262 263 264 265 267 269 270 269 268 268 268 267 267 266 264 262 262 262 260 258 258 260 261 261 260 259 258 258 259 260
223 222 224 226 225 225 226 228 229 230 231 231 230 229 229 230 230 231 230 230 231 233 234 235 236 237 238 240 243 245 247 249 250 250 250 249 249 252 257 258 258 258 258 258 259 260 260 260 261 262 261 260 259 260 262 262 262 262 261 260 261 262 263 266 269 272 272 269 269 268 267 267 268 266 261 259 260 261 262 262 261 260 259 260 261
228 225 225 226 226 226 227 227 228 230 232 233 233 232 231 232 232 233 232 232 232 233 234 235 236 237 237 238 240 243 245 246 248 249 249 249 250 253 257 258 258 258 258 259 260 260 260 260 260 261 261 260 259 260 261 262 262 262 261 259 260 262 264 266 269 273 274 272 271 271 269 267 268 269 267 264 262 262 263 264 263 262 261 260 260
233 232 230 229 229 229 228 229 229 230 231 233 233 234 234 234 234 234 234 233 233 233 233 234 234 235 236 237 239 240 241 242 244 246 247 248 249 251 252 254 256 257 258 259 260 260 261 261 260 260 260 260 260 261 262 263 262 261 261 261 262 263 264 265 267 269 271 271 272 271 269 267 266 268 269 268 267 266 266 266 265 263 262 261 261
235 236 235 234 233 232 231 231 231 232 233 233 233 234 235 235 236 235 235 234 234 235 234 233 233 234 235 236 238 239 239 240 241 243 245 247 249 249 249 250 253 255 257 258 259 260 260 261 261 260 260 260 260 261 262 263 262 260 261 262 262 263 264 265 266 266 268 269 270 270 269 269 269 270 271 271 270 269 268 269 269 267 265 264 262
234 235 236 236 236 236 235 234 233 234 235 235 234 234 234 235 236 237 236 236 236 236 235 233 233 235 237 237 238 238 239 240 241 243 244 246 249 250 249 249 249 251 253 255 257 258 260 260 261 261 260 259 259 260 261 262 261 260 259 260 260 261 262 264 265 266 266 267 267 268 269 270 271 272 273 273 272 271 269 270 271 271 270 268 266
234 235 236 236 236 237 237 237 236 235 236 237 237 236 235 235 236 236 237 237 237 237 236 235 236 238 241 242 241 241 241 242 243 244 245 246 248 249 250 249 249 250 251 252 254 256 257 259 260 260 260 259 259 259 260 260 260 259 258 258 257 258 259 262 264 265 265 265 265 266 267 269 270 271 271 272 272 271 270 269 271 273 273 271 269
234 235 236 237 237 238 238 239 239 239 238 238 239 238 238 237 237 237 237 238 238 238 238 238 238 241 244 246 245 245 246 247 247 247 248 248 249 249 250 250 250 250 251 251 252 253 254 255 257 259 260 260 260 260 259 259 259 258 258 257 256 256 257 259 261 263 264 264 264 264 265 267 268 268 268 269 269 270 269 269 270 271 272 272 271
236 236 237 238 239 239 240 241 242 242 242 242 241 240 240 240 239 239 239 239 239 239 240 240 241 243 245 247 248 248 248 249 249 249 250 250 251 251 251 251 250 250 251 252 253 254 254 254 256 257 259 259 260 260 260 259 258 258 257 257 257 257 257 257 259 261 263 263 262 262 263 265 267 267 267 266 266 267 267 267 268 268 269 270 271
238 238 238 239 240 241 241 242 243 243 244 244 244 244 243 243 242 242 241 241 240 240 241 241 242 243 245 246 247 248 248 248 249 250 250 251 251 252 252 252 252 252 252 253 254 255 256 257 257 258 258 259 259 260 260 260 260 259 258 258 258 258 259 259 260 261 263 263 262 261 261 262 264 266 267 267 267 266 266 266 266 266 267 267 268
Height
11022 11021 11020 11019 11019 11018 11018 11017 11016 11015 11014 11013 11011 11010 11009 11009 11008 11008 11007 11006 11006 11005 11004 11002 11001 11000 10999 10998 10996 10995 10993 10992 10991 10989 10988 10986 10985 10984 10983 10982 10981 10981 10980 10980 10980 10979 10979 10979 10978 10978 10977 10977 10977 10976 10976 10975 10975 10974 10973 10973 10972 10972 10972 10971 10971 10970 10969 10968 10967 10966 10965 10963 10962 10960 10958 10957 10955 10954 10952 10951 10948 10946 10944 10942 10940
11023 11023 11022 11021 11020 11020 11019 11018 11017 11017 11016 11014 11013 11012 11011 11010 11010 11009 11009 11008 11008 11007 11006 11005 11004 11003 11001 11000 10999 10997 10996 10995 10993 10992 10991 10989 10988 10986 10985 10984 10983 10983 10983 10982 10982 10981 10981 10980 10980 10979 10979 10979 10978 10977 10977 10977 10976 10976 10975 10975 10974 10974 10974 10973 10972 10972 10971 10970 10969 10967 10966 10965 10964 10963 10961 10959 10958 10956 10954 10952 10950 10948 10946 10944 10941
11024 11024 11023 11023 11022 11021 11020 11020 11019 11018 11017 11016 11015 11014 11013 11013 11012 11011 11011 11010 11010 11009 11009 11008 11007 11006 11004 11003 11002 11000 10999 10998 10996 10995 10994 10992 10991 10989 10988 10987 10986 10986 10985 10985 10984 10983 10982 10982 10981 10981 10980 10980 10980 10979 10978 10978 10977 10977 10977 10977 10976 10976 10975 10975 10974 10973 10973 10972 10970 10970 10969 10967 10966 10965 10963 10962 10960 10958 10957 10955 10952 10950 10948 10946 10943
11025 11024 11024 11024 11023 11023 11022 11021 11021 11020 11019 11019 11018 11017 11016 11015 11015 11014 11013 11013 11012 11011 11011 11010 11010 11009 11008 11006 11004 11003 11001 11000 10999 10998 10997 10995 10994 10993 10992 10990 10989 10988 10988 10987 10986 10985 10984 10984 10983 10983 10982 10982 10981 10981 10980 10980 10979 10979 10979 10979 10978 10978 10977 10976 10976 10975 10975 10974 10973 10972 10971 10970 10968 10967 10965 10964 10963 10961 10959 10957 10955 10953 10950 10948 10946
11025 11025 11025 11025 11024 11024 11024 11023 11022 11022 11021 11021 11020 11019 11019 11018 11017 11016 11016 11015 11015 11014 11013 11013 11012 11011 11010 11009 11007 11006 11004 11003 11002 11001 11000 10999 10997 10996 10995 10994 10992 10991 10990 10989 10989 10988 10987 10986 10985 10985 10984 10984 10983 10982 10982 10981 10981 10981 10981 10981 10980 10979 10979 10978 10978 10978 10977 10976 10975 10974 10973 10972 10970 10969 10968 10967 10965 10963 10961 10960 10958 10956 10954 10951 10949
11025 11025 11025 11025 11025 11025 11025 11024 11024 11023 11023 11022 11022 11021 11021 11020 11020 11019 11018 11018 11017 11016 11016 11015 11014 11013 11012 11011 11010 11008 11007 11006 11005 11004 11003 11001 11000 10999 10998 10997 10996 10994 10993 10992 10991 10990 10989 10988 10988 10987 10986 10986 10985 10984 10984 10983 10983 10983 10983 10983 10982 10981 10981 10980 10980 10980 10979 10978 10978 10977 10975 10974 10973 10972 10971 10970 10969 10967 10965 10963 10961 10959 10958 10955 10953
11024 11024 11025 11025 11025 11025 11025 11025 11025 11025 11024 11024 11023 11023 11022 11022 11021 11021 11021 11020 11020 11019 11018 11017 11017 11016 11015 11014 11012 11011 11010 11009 11008 11006 11005 11004 11003 11002 11001 11000 10999 10997 10996 10995 10994 10993 10992 10991 10990 10989 10988 10988 10987 10986 10986 10985 10985 10985 10985 10985 10985 10984 10983 10983 10983 10982 10981 10981 10980 10979 10978 10976 10976 10975 10974 10973 10972 10971 10969 10967 10965 10963 10962 10960 10957
11024 11024 11024 11025 11025 11026 11026 11026 11026 11025 11025 11025 11025 11024 11024 11023 11023 11023 11022 11022 11022 11021 11021 11020 11019 11018 11017 11016 11015 11013 11012 11011 11010 11009 11008 11007 11005 11004 11003 11002 11001 11000 10999 10998 10997 10996 10995 10994 10993 10992 10991 10990 10990 10989 10989 10988 10988 10987 10987 10987 10987 10987 10986 10986 10986 10985 10984 10984 10983 10981 10980 10979 10979 10978 10977 10977 10975 10974 10973 10972 10970 10968 10966 10964 10962
11023 11024 11024 11024 11025 11026 11026 11026 11026 11026 11026 11026 11026 11026 11025 11024 11024 11024 11024 11024 11023 11023 11023 11022 11021 11020 11019 11018 11017 11016 11015 11014 11013 11012 11011 11010 11008 11007 11006 11004 11004 11003 11002 11001 11000 10999 10998 10997 10996 10995 10994 10993 10992 10992 10991 10991 10991 10990 10990 10990 10990 10990 10989 10989 10989 10988 10987 10986 10985 10984 10984 10983 10982 10982 10981 10981 10979 10978 10977 10976 10975 10973 10971 10969 10967
11022 11023 11024 11024 11025 11026 11026 11027 11027 11027 11027 11027 11027 11027 11026 11026 11025 11025 11025 11025 11025 11025 11024 11024 11023 11022 11021 11021 11020 11019 11018 11017 11016 11015 11014 11012 11011 11010 11009 11007 11007 11006 11005 11004 11003 11002 11001 11000 10999 10998 10997 10996 10995 10995 10994 10994 10994 10994 10993 10993 10993 10993 10992 10992 10991 10991 10990 10989 10988 10988 10987 10987 10986 10985 10985 10984 10983 10982 10981 10980 10980 10978 10975 10974 10973
11020 11022 11023 11024 11025 11025 11026 11027 11027 11028 11028 11028 11028 11028 11028 11028 11027 11027 11027 11026 11026 11026 11026 11026 11025 11024 11024 11023 11022 11021 11020 11020 11019 11018 11016 11015 11014 11013 11012 11011 11010 11009 11008 11007 11006 11005 11004 11003 11003 11002 11000 10999 10998 10998 10997 10997 10996 10996 10996 10996 10995 10995 10994 10994 10994 10993 10993 10992 10991 10991 10991 10990 10990 10989 10989 10988 10987 10986 10985 10984 10983 10982 10980 10979 10978
11018 11020 11022 11023 11024 11025 11026 11027 11027 11028 11029 11029 11029 11029 11029 11029 11029 11028 11028 11028 11028 11028 11028 11027 11027 11026 11025 11025 11024 11023 11023 11022 11021 11020 11019 11018 11017 11016 11015 11014 11013 11012 11011 11010 11009 11008 11007 11006 11006 11005 11004 11003 11002 11001 11000 10999 10999 10998 10998 10998 10998 10997 10997 10997 10996 10995 10995 10994 10994 10994 10994 10993 10993 10992 10992 10991 10991 10990 10989 10988 10987 10986 10985 10983 10982
11017 11019 11020 11022 11023 11025 11026 11027 11027 11028 11029 11029 11030 11030 11030 11030 11030 11030 11030 11029 11029 11029 11029 11029 11028 11028 11027 11026 11026 11025 11025 11024 11023 11022 11021 11020 11019 11018 11017 11017 11015 11014 11013 11013 11012 11011 11010 11009 11009 11008 11007 11006 11005 11004 11003 11002 11001 11001 11000 11000 11000 11000 11000 10999 10998 10998 10997 10997 10996 10996 10996 10996 10996 10995 10995 10995 10994 10994 10993 10992 10991 10990 10989 10987 10986
11015 11017 11019 11021 11022 11024 11025 11026 11027 11028 11029 11029 11030 11031 11031 11031 11031 11030 11030 11030 11030 11030 11030 11030 11030 11029 11029 11028 11028 11027 11026 11026 11025 11024 11023 11022 11021 11020 11019 11019 11018 11016 11015 11015 11015 11014 11013 11012 11011 11011 11010 11009 11008 11007 11006 11005 11004 11003 11003 11003 11003 11003 11002 11002 11001 11000 11000 11000 10999 10999 10999 10999 10999 10998 10998 10998 10997 10997 10996 10995 10994 10993 10992 10991 10990
11013 11015 11017 11019 11021 11022 11024 11025 11026 11028 11028 11029 11030 11031 11031 11031 11031 11031 11030 11030 11031 11030 11030 11031 11031 11031 11030 11030 11029 11029 11028 11027 11026 11025 11024 11024 11023 11022 11021 11020 11019 11018 11018 11017 11017 11016 11015 11015 11014 11013 11013 11012 11011 11010 11009 11008 11007 11007 11006 11005 11005 11005 11005 11004 11004 11003 11003 11002 11002 11002 11002 11001 11002 11002 11001 11001 11000 11000 10999 10998 10997 10997 10996 10995 10993
11011 11013 11015 11017 11019 11020 11022 11024 11025 11027 11028 11029 11029 11030 11031 11031 11031 11030 11030 11030 11030 11030 11031 11031 11031 11031 11031 11030 11030 11030 11029 11028 11027 11027 11026 11025 11024 11023 11023 11022 11021 11021 11020 11020 11019 11019 11018 11017 11017 11016 11016 11015 11014 11013 11012 11011 11011 11010 11009 11008 11008 11008 11007 11007 11007 11006 11005 11005 11005 11004 11004 11004 11004 11004 11004 11004 11003 11003 11002 11001 11000 10999 10999 10998 10997
11009 11011 11014 11016 11017 11019 11020 11022 11024 11026 11027 11028 11028 11029 11030 11030 11030 11030 11030 11030 11030 11030 11030 11030 11031 11031 11031 11031 11030 11030 11030 11029 11029 11028 11027 11027 11026 11025 11025 11024 11024 11023 11023 11022 11022 11021 11021 11020 11019 11019 11019 11018 11018 11017 11016 11015 11014 11013 11012 11011 11011 11010 11010 11010 11009 11009 11008 11008 11007 11007 11007 11007 11007 11007 11006 11006 11006 11005 11005 11004 11003 11002 11002 11002 11001
11007 11010 11012 11014 11016 11017 11019 11020 11022 11024 11026 11027 11027 11028 11028 11029 11029 11029 11030 11030 11030 11030 11030 11030 11030 11030 11030 11030 11030 11030 11030 11030 11030 11030 11029 11028 11028 11027 11027 11026 11026 11025 11025 11025 11025 11024 11023 11022 11022 11021 11021 11021 11020 11019 11019 11018 11017 11016 11015 11014 11014 11013 11013 11012 11012 11011 11011 11010 11010 11009 11009 11009 11009 11009 11009 11008 11008 11008 11007 11006 11006 11006 11006 11005 11004
11005 11008 11010 11012 11014 11016 11017 11019 11020 11022 11024 11025 11026 11026 11027 11027 11028 11028 11029 11029 11029 11030 11030 11030 11030 11030 11030 11030 11030 11030 11030 11031 11031 11031 11031 11030 11030 11029 11029 11028 11028 11028 11027 11027 11027 11027 11026 11025 11024 11024 11023 11023 11022 11021 11021 11020 11020 11019 11018 11017 11016 11016 11015 11015 11014 11014 11013 11013 11012 11012 11011 11011 11011 11011 11011 11011 11010 11010 11010 11009 11009 11009 11009 11008 11007
11002 11005 11007 11010 11012 11014 11015 11017 11018 11020 11021 11023 11023 11024 11025 11025 11026 11026 11028 11029 11029 11029 11030 11031 11031 11031 11031 11031 11030 11030 11031 11031 11031 11031 11032 11031 11031 11031 11031 11030 11030 11030 11030 11029 11029 11029 11028 11027 11026 11026 11025 11025 11024 11024 11023 11022 11022 11021 11020 11019 11019 11018 11017 11017 11016 11016 11016 11016 11015 11015 11014 11014 11013 11013 11013 11012 11012 11012 11012 11012 11012 11011 11011 11010 11009
10998 11001 11004 11007 11009 11011 11013 11014 11016 11017 11019 11020 11021 11022 11023 11024 11024 11025 11026 11027 11028 11029 11030 11030 11031 11032 11032 11032 11031 11032 11032 11032 11032 11032 11032 11032 11032 11032 11032 11032 11032 11032 11031 11031 11031 11030 11030 11029 11028 11027 11027 11026 11026 11025 11025 11024 11023 11023 11022 11021 11020 11020 11019 11019 11018 11018 11018 11018 11018 11017 11017 11016 11016 11015 11014 11014 11014 11014 11014 11014 11014 11013 11013 11012 11011
10995 10998 11001 11004 11007 11009 11011 11012 11013 11015 11017 11018 11019 11020 11021 11022 11023 11023 11024 11026 11027 11028 11029 11030 11031 11031 11032 11032 11032 11032 11032 11032 11032 11032 11032 11032 11032 11032 11033 11033 11033 11033 11033 11033 11032 11032 11031 11030 11030 11029 11028 11027 11027 11027 11026 11026 11025 11024 11024 11023 11022 11022 11021 11020 11020 11020 11020 11019 11019 11019 11019 11019 11018 11017 11017 11016 11016 11016 11016 11016 11015 11015 11014 11013 11013
10993 10996 11000 11003 11005 11008 11009 11009 11010 11012 11014 11015 11016 11017 11019 11020 11021 11021 11022 11023 11025 11026 11027 11029 11030 11030 11031 11031 11032 11032 11032 11032 11032 11032 11032 11032 11032 11032 11032 11033 11033 11033 11033 11033 11033 11033 11032 11032 11031 11030 11030 11029 11029 11028 11028 11027 11027 11026 11025 11025 11024 11023 11022 11022 11022 11021 11021 11021 11020 11020 11020 11020 11020 11020 11019 11019 11018 11018 11018 11017 11017 11017 11016 11015 11015
10989 10994 10998 11003 11005 11006 11007 11007 11007 11009 11010 11012 11013 11015 11016 11017 11018 11019 11020 11021 11022 11023 11025 11026 11028 11028 11029 11030 11030 11031 11031 11031 11031 11031 11031 11031 11032 11032 11032 11032 11032 11033 11033 11033 11033 11033 11033 11032 11032 11032 11031 11031 11030 11030 11029 11029 11028 11028 11027 11027 11026 11025 11024 11023 11023 11022 11022 11022 11022 11021 11021 11021 11021 11021 11021 11020 11020 11019 11019 11019 11018 11018 11018 11017 11016
10986 10990 10995 11000 11002 11003 11004 11004 11004 11005 11007 11008 11010 11012 11013 11015 11016 11017 11018 11019 11020 11021 11022 11023 11025 11026 11027 11027 11028 11029 11029 11029 11029 11029 11029 11030 11030 11031 11031 11031 11031 11032 11032 11033 11033 11033 11033 11032 11032 11032 11032 11032 11032 11032 11031 11031 11030 11029 11029 11028 11027 11026 11025 11024 11023 11023 11023 11023 11024 11024 11023 11023 11022 11022 11021 11021 11021 11020 11020 11019 11019 11019 11019 11019 11018
10982 10985 10988 10992 10995 10998 10999 11000 11001 11002 11003 11005 11008 11009 11011 11012 11013 11014 11015 11016 11017 11018 11018 11020 11021 11022 11023 11024 11025 11025 11026 11026 11026 11027 11027 11028 11028 11029 11029 11030 11030 11030 11031 11031 11032 11032 11032 11032 11032 11033 11033 11033 11033 11033 11033 11032 11032 11031 11030 11029 11028 11027 11026 11025 11025 11024 11025 11025 11025 11024 11024 11023 11023 11022 11022 11021 11021 11020 11020 11020 11019 11019 11019 11019 11019
10979 10982 10983 10985 10988 10991 10993 10995 10997 10998 11001 11002 11005 11007 11009 11011 11011 11012 11012 11013 11014 11015 11015 11016 11016 11017 11018 11019 11020 11021 11022 11023 11023 11024 11025 11025 11026 11027 11027 11028 11028 11029 11029 11030 11030 11031 11031 11031 11032 11032 11033 11033 11033 11033 11033 11033 11032 11032 11031 11030 11029 11028 11027 11026 11026 11026 11026 11026 11025 11024 11024 11023 11023 11022 11021 11021 11021 11020 11020 11020 11020 11019 11019 11019 11019
10975 10978 10980 10981 10982 10984 10987 10990 10992 10995 10999 11001 11004 11007 11008 11009 11010 11010 11010 11010 11010 11010 11010 11010 11011 11012 11014 11015 11017 11018 11019 11020 11021 11022 11022 11023 11024 11025 11025 11026 11027 11027 11027 11028 11029 11029 11030 11030 11031 11031 11032 11033 11033 11033 11033 11033 11033 11033 11032 11031 11030 11029 11027 11027 11027 11027 11026 11026 11026 11025 11024 11024 11023 11022 11021 11021 11021 11020 11020 11020 11020 11019 11019 11019 11018
10972 10974 10975 10977 10979 10981 10983 10985 10988 10991 10995 10999 11003 11005 11005 11005 11007 11007 11006 11005 11003 11002 11004 11006 11007 11008 11010 11011 11013 11015 11016 11017 11018 11019 11020 11020 11021 11022 11023 11024 11025 11025 11026 11026 11027 11027 11028 11029 11029 11030 11031 11031 11031 11032 11032 11032 11032 11032 11032 11032 11031 11030 11028 11027 11028 11028 11027 11027 11026 11025 11025 11024 11023 11022 11021 11020 11020 11020 11019 11019 11019 11019 11019 11018 11018
10967 10968 10969 10972 10975 10977 10980 10982 10985 10988 10991 10993 10995 10998 10999 11000 11001 11001 11000 10999 10997 10996 10998 11001 11002 11003 11005 11006 11008 11010 11011 11013 11015 11015 11016 11017 11018 11019 11020 11021 11022 11022 11024 11024 11025 11025 11026 11027 11028 11028 11029 11029 11030 11030 11030 11030 11031 11031 11031 11031 11030 11030 11029 11028 11028 11029 11028 11028 11027 11026 11025 11024 11023 11022 11021 11020 11020 11019 11019 11018 11018 11018 11018 11017 11017
10962 10963 10964 10967 10970 10974 10976 10979 10981 10984 10986 10986 10987 10991 10993 10993 10994 10995 10993 10992 10992 10993 10993 10993 10995 10998 11000 11002 11004 11006 11007 11009 11010 11011 11012 11013 11014 11015 11017 11017 11018 11020 11021 11021 11022 11023 11024 11025 11025 11026 11027 11027 11028 11028 11028 11028 11029 11029 11029 11029 11029 11029 11028 11028 11029 11029 11029 11028 11027 11026 11025 11024 11023 11022 11021 11020 11020 11019 11018 11018 11017 11017 11017 11016 11016
10956 10958 10960 10962 10965 10968 10971 10974 10977 10979 10981 10981 10982 10985 10987 10987 10989 10990 10989 10988 10988 10989 10988 10987 10988 10992 10996 10998 11000 11002 11003 11005 11006 11007 11008 11009 11010 11011 11013 11014 11015 11017 11018 11018 11019 11020 11021 11022 11023 11023 11024 11025 11025 11026 11026 11026 11026 11026 11026 11026 11026 11026 11026 11027 11027 11028 11028 11028 11027 11026 11025 11024 11023 11022 11021 11020 11019 11019 11018 11017 11017 11016 11016 11016 11015
10952 10954 10957 10959 10961 10964 10966 10968 10971 10973 10974 10975 10977 10980 10982 10983 10984 10985 10985 10984 10984 10985 10984 10983 10984 10987 10991 10994 10995 10996 10998 11000 11001 11002 11003 11005 11006 11007 11009 11010 11012 11013 11014 11015 11016 11017 11018 11019 11019 11020 11021 11021 11022 11022 11023 11023 11023 11023 11023 11023 11023 11023 11024 11024 11024 11025 11026 11026 11026 11025 11024 11023 11022 11022 11021 11020 11019 11018 11017 11017 11016 11016 11016 11015 11014
10948 10950 10953 10956 10959 10960 10961 10963 10964 10966 10968 10970 10972 10975 10977 10979 10980 10980 10979 10979 10979 10980 10980 10980 10980 10981 10985 10988 10990 10991 10993 10994 10995 10997 10998 11000 11002 11003 11005 11006 11008 11009 11011 11012 11013 11013 11014 11014 11015 11016 11016 11017 11018 11018 11019 11019 11020 11020 11020 11019 11020 11020 11021 11021 11021 11022 11022 11023 11023 11023 11023 11022 11021 11020 11019 11018 11018 11017 11016 11016 11016 11016 11015 11014 11014
10944 10946 10949 10953 10956 10956 10956 10956 10957 10959 10962 10966 10969 10971 10972 10973 10973 10974 10973 10973 10974 10975 10974 10974 10974 10976 10979 10982 10983 10985 10987 10988 10990 10991 10993 10995 10997 10998 11000 11002 11003 11005 11007 11008 11009 11010 11010 11010 11010 11010 11012 11013 11013 11013 11014 11015 11016 11017 11017 11016 11016 11016 11017 11017 11018 11018 11019 11019 11020 11020 11020 11020 11020 11018 11018 11017 11016 11016 11015 11015 11015 11014 11014 11013 11013
10937 10939 10941 10944 10945 10944 10944 10945 10946 10949 10954 10959 10962 10962 10962 10962 10964 10965 10965 10965 10966 10968 10967 10968 10970 10971 10973 10975 10977 10978 10980 10981 10983 10985 10987 10989 10991 10993 10995 10997 10998 11000 11002 11004 11006 11006 11006 11005 11005 11005 11007 11008 11007 11008 11010 11011 11011 11012 11013 11012 11012 11012 11012 11013 11013 11014 11014 11015 11016 11016 11016 11016 11017 11016 11016 11015 11014 11014 11013 11013 11013 11012 11012 11011 11011
10926 10928 10928 10929 10930 10931 10932 10934 10937 10941 10945 10949 10950 10950 10950 10952 10954 10955 10956 10956 10958 10961 10962 10963 10965 10966 10967 10969 10971 10972 10973 10975 10978 10979 10981 10984 10985 10987 10989 10991 10993 10995 10997 11000 11001 11001 11001 11000 10999 11000 11002 11003 11002 11002 11005 11007 11007 11007 11008 11008 11008 11008 11007 11007 11008 11009 11009 11010 11011 11012 11012 11012 11012 11013 11013 11012 11012 11011 11010 11010 11010 11010 11009 11009 11008
10911 10916 10917 10918 10921 10923 10925 10927 10929 10933 10937 10940 10941 10942 10943 10945 10946 10947 10948 10949 10950 10953 10955 10957 10959 10959 10961 10963 10965 10967 10968 10969 10971 10973 10975 10978 10980 10981 10983 10985 10988 10990 10993 10995 10996 10996 10995 10993 10992 10994 10997 10999 10999 10998 10999 11001 11001 11002 11003 11002 11003 11004 11003 11002 11002 11003 11004 11005 11006 11007 11007 11008 11008 11008 11008 11009 11008 11008 11007 11007 11007 11006 11006 11006 11006
10897 10904 10907 10908 10911 10915 10918 10920 10922 10925 10929 10932 10934 10935 10936 10938 10939 10940 10941 10941 10942 10944 10946 10949 10951 10953 10954 10956 10958 10960 10962 10963 10964 10966 10969 10972 10974 10976 10978 10980 10983 10986 10989 10990 10991 10990 10989 10987 10986 10988 10991 10993 10994 10994 10994 10995 10996 10997 10997 10997 10998 10998 10997 10997 10997 10997 10998 10999 11000 11001 11002 11003 11004 11004 11004 11004 11004 11004 11004 11004 11003 11003 11002 11002 11002
10886 10893 10896 10898 10902 10908 10911 10912 10914 10918 10921 10923 10926 10928 10929 10930 10931 10932 10933 10935 10935 10937 10938 10940 10943 10945 10947 10949 10951 10953 10955 10956 10958 10960 10962 10965 10968 10970 10972 10975 10979 10982 10983 10984 10984 10982 10981 10980 10981 10983 10985 10987 10988 10989 10989 10989 10990 10991 10992 10992 10993 10992 10991 10991 10991 10991 10992 10993 10994 10995 10997 10998 10999 10999 10999 10998 10998 10999 10999 11000 10999 10999 10998 10998 10998
10880 10884 10886 10890 10897 10902 10905 10906 10907 10909 10911 10914 10916 10918 10920 10921 10923 10924 10926 10928 10928 10929 10931 10933 10935 10937 10939 10941 10943 10945 10947 10949 10951 10953 10956 10958 10961 10963 10965 10968 10972 10973 10974 10975 10976 10974 10973 10973 10974 10977 10979 10981 10982 10982 10983 10984 10984 10985 10987 10988 10989 10988 10986 10984 10984 10985 10987 10987 10987 10989 10991 10993 10994 10994 10993 10993 10993 10994 10994 10995 10994 10994 10994 10994 10994
10871 10875 10876 10881 10888 10893 10896 10898 10898 10899 10901 10904 10906 10909 10910 10912 10915 10917 10919 10920 10921 10922 10924 10926 10928 10929 10931 10933 10934 10936 10938 10941 10943 10946 10948 10950 10952 10954 10956 10960 10963 10964 10965 10966 10966 10966 10965 10966 10967 10970 10973 10974 10974 10975 10977 10977 10977 10979 10982 10984 10985 10984 10982 10978 10977 10978 10981 10981 10981 10983 10985 10987 10987 10988 10987 10988 10988 10989 10989 10989 10988 10988 10988 10989 10988
10861 10865 10868 10872 10877 10882 10886 10888 10889 10890 10893 10895 10898 10900 10902 10904 10906 10909 10912 10913 10913 10915 10916 10918 10920 10921 10922 10924 10926 10928 10930 10933 10935 10938 10940 10942 10944 10946 10948 10951 10953 10955 10957 10957 10957 10957 10958 10959 10959 10962 10965 10966 10966 10966 10967 10969 10970 10973 10976 10977 10977 10976 10975 10973 10971 10971 10973 10974 10976 10978 10979 10980 10980 10981 10982 10983 10983 10983 10983 10982 10982 10982 10982 10982 10982
10853 10859 10862 10865 10868 10872 10876 10879 10881 10882 10885 10887 10890 10893 10894 10896 10898 10900 10903 10904 10905 10907 10908 10910 10911 10912 10914 10916 10918 10920 10922 10925 10927 10928 10931 10934 10937 10939 10940 10942 10943 10945 10947 10948 10949 10948 10949 10951 10952 10953 10956 10958 10957 10956 10958 10960 10964 10966 10967 10968 10968 10967 10967 10967 10966 10965 10966 10967 10969 10971 10972 10973 10973 10974 10975 10976 10977 10977 10977 10976 10976 10976 10975 10975 10974
10845 10851 10855 10858 10861 10863 10866 10869 10872 10874 10876 10879 10882 10884 10886 10887 10888 10891 10893 10895 10897 10898 10899 10901 10902 10903 10905 10907 10909 10911 10914 10916 10918 10919 10921 10924 10926 10929 10931 10932 10932 10934 10936 10938 10939 10939 10940 10942 10943 10944 10947 10949 10948 10947 10948 10953 10957 10957 10956 10957 10958 10958 10959 10959 10959 10959 10959 10960 10961 10962 10964 10965 10965 10966 10967 10968 10969 10969 10970 10969 10969 10968 10967 10967 10966
10837 10841 10845 10849 10852 10855 10857 10859 10861 10864 10866 10869 10872 10874 10876 10877 10879 10881 10883 10885 10887 10889 10890 10892 10893 10894 10895 10897 10899 10902 10904 10906 10909 10911 10912 10914 10916 10919 10921 10922 10923 10925 10927 10928 10929 10929 10930 10931 10931 10933 10937 10940 10939 10938 10939 10943 10947 10949 10948 10948 10948 10948 10949 10950 10950 10950 10952 10953 10953 10954 10955 10956 10956 10957 10958 10959 10960 10960 10961 10961 10960 10959 10959 10959 10959
10829 10831 10834 10838 10841 10843 10846 10849 10851 10853 10856 10858 10861 10863 10865 10867 10869 10871 10873 10875 10877 10879 10881 10883 10884 10884 10886 10887 10889 10891 10894 10896 10899 10901 10902 10904 10907 10910 10912 10913 10915 10917 10918 10919 10919 10919 10920 10921 10921 10922 10925 10928 10930 10930 10931 10932 10936 10939 10940 10940 10940 10939 10939 10940 10941 10942 10942 10943 10945 10946 10946 10946 10947 10948 10949 10949 10949 10950 10951 10951 10950 10950 10950 10951 10951
10819 10822 10824 10827 10829 10832 10834 10837 10839 10842 10844 10847 10849 10852 10854 10856 10858 10860 10862 10864 10866 10868 10871 10872 10874 10875 10876 10877 10879 10881 10883 10885 10888 10890 10892 10894 10896 10899 10902 10905 10907 10909 10910 10911 10911 10912 10912 10912 10912 10913 10914 10916 10918 10920 10921 10923 10924 10927 10930 10932 10932 10932 10930 10931 10932 10933 10932 10933 10934 10935 10935 10936 10938 10940 10939 10939 10939 10941 10941 10941 10940 10940 10941 10941 10941
10809 10812 10814 10816 10819 10821 10823 10825 10827 10829 10832 10834 10837 10840 10843 10845 10847 10849 10852 10854 10856 10858 10860 10861 10863 10865 10866 10866 10868 10871 10873 10875 10877 10879 10882 10883 10885 10888 10891 10894 10897 10900 10902 10903 10903 10903 10903 10903 10904 10904 10905 10906 10907 10908 10910 10913 10914 10916 10917 10920 10922 10923 10922 10922 10923 10924 10924 10924 10924 10924 10924 10924 10927 10928 10929 10929 10930 10930 10930 10930 10931 10931 10932 10932 10932
10797 10801 10803 10805 10807 10809 10812 10813 10815 10817 10819 10822 10825 10828 10831 10833 10836 10838 10840 10842 10845 10847 10849 10851 10853 10855 10855 10855 10857 10859 10862 10864 10866 10868 10870 10873 10874 10877 10879 10883 10886 10889 10891 10893 10894 10894 10894 10895 10896 10896 10895 10896 10896 10897 10898 10901 10903 10904 10906 10908 10910 10911 10912 10912 10913 10913 10914 10914 10914 10915 10914 10914 10914 10914 10915 10917 10919 10920 10920 10920 10920 10921 10921 10922 10922
10785 10789 10792 10794 10796 10798 10800 10801 10803 10805 10807 10809 10811 10814 10817 10820 10824 10826 10829 10831 10833 10835 10838 10840 10841 10843 10845 10846 10846 10848 10850 10852 10854 10856 10859 10861 10863 10866 10868 10871 10874 10877 10879 10882 10883 10884 10884 10885 10886 10887 10887 10887 10887 10887 10887 10888 10890 10891 10893 10896 10898 10898 10899 10900 10901 10902 10903 10903 10903 10903 10903 10903 10902 10902 10901 10902 10905 10907 10909 10910 10910 10910 10910 10910 10910